Date_Time,Julian_Date,Latitude,Longitude,Instrument_Depth,U,V,Speed,Direction
(yyyy-mm-dd hh:mn:ss UTC),(JD),(+ deg. North),(+ deg. East),(m),(cm/s),(cm/s),(cm/s),(deg True)
1984-08-02 20:00:00 UTC,2445915.333333,29.6633,-93.4786,0079,-19.17,-14.44,24.0000,233.0000
1984-08-02 20:30:00 UTC,2445915.354167,29.6633,-93.4786,0079,-22.94,-16.06,28.0000,235.0000
1984-08-02 21:00:00 UTC,2445915.375000,29.6633,-93.4786,0079,-26.57,-15.97,31.0000,239.0000
1984-08-02 21:30:00 UTC,2445915.395833,29.6633,-93.4786,0079,-28.74,-11.61,31.0000,248.0000
1984-08-02 22:00:00 UTC,2445915.416667,29.6633,-93.4786,0079,-30.70,-4.31,31.0000,262.0000
1984-08-02 22:30:00 UTC,2445915.437500,29.6633,-93.4786,0079,-31.00,0.54,31.0000,271.0000
1984-08-02 23:00:00 UTC,2445915.458333,29.6633,-93.4786,0079,-28.93,2.02,29.0000,274.0000
1984-08-02 23:30:00 UTC,2445915.479167,29.6633,-93.4786,0079,-28.78,3.53,29.0000,277.0000
1984-08-03 00:00:00 UTC,2445915.500000,29.6633,-93.4786,0079,-28.72,4.04,29.0000,278.0000
1984-08-03 00:30:00 UTC,2445915.520833,29.6633,-93.4786,0079,-26.67,4.22,27.0000,279.0000
1984-08-03 01:00:00 UTC,2445915.541667,29.6633,-93.4786,0079,-26.41,5.61,27.0000,282.0000
1984-08-03 01:30:00 UTC,2445915.562500,29.6633,-93.4786,0079,-28.26,6.52,29.0000,283.0000
1984-08-03 02:00:00 UTC,2445915.583333,29.6633,-93.4786,0079,-28.47,5.53,29.0000,281.0000
1984-08-03 02:30:00 UTC,2445915.604167,29.6633,-93.4786,0079,-26.80,3.29,27.0000,277.0000
1984-08-03 03:00:00 UTC,2445915.625000,29.6633,-93.4786,0079,-25.94,1.81,26.0000,274.0000
1984-08-03 03:30:00 UTC,2445915.645833,29.6633,-93.4786,0079,-21.97,1.15,22.0000,273.0000
1984-08-03 04:00:00 UTC,2445915.666667,29.6633,-93.4786,0079,-18.95,1.33,19.0000,274.0000
1984-08-03 04:30:00 UTC,2445915.687500,29.6633,-93.4786,0079,-17.87,2.19,18.0000,277.0000
1984-08-03 05:00:00 UTC,2445915.708333,29.6633,-93.4786,0079,-18.71,3.30,19.0000,280.0000
1984-08-03 05:30:00 UTC,2445915.729167,29.6633,-93.4786,0079,-19.41,4.84,20.0000,284.0000
1984-08-03 06:00:00 UTC,2445915.750000,29.6633,-93.4786,0079,-17.85,6.50,19.0000,290.0000
1984-08-03 06:30:00 UTC,2445915.770833,29.6633,-93.4786,0079,-17.08,8.33,19.0000,296.0000
1984-08-03 07:00:00 UTC,2445915.791667,29.6633,-93.4786,0079,-16.93,8.63,19.0000,297.0000
1984-08-03 07:30:00 UTC,2445915.812500,29.6633,-93.4786,0079,-17.08,8.33,19.0000,296.0000
1984-08-03 08:00:00 UTC,2445915.833333,29.6633,-93.4786,0079,-16.93,8.63,19.0000,297.0000
1984-08-03 08:30:00 UTC,2445915.854167,29.6633,-93.4786,0079,-14.50,6.76,16.0000,295.0000
1984-08-03 09:00:00 UTC,2445915.875000,29.6633,-93.4786,0079,-14.42,4.13,15.0000,286.0000
1984-08-03 09:30:00 UTC,2445915.895833,29.6633,-93.4786,0079,-13.92,1.46,14.0000,276.0000
1984-08-03 10:00:00 UTC,2445915.916667,29.6633,-93.4786,0079,-12.93,-1.36,13.0000,264.0000
1984-08-03 10:30:00 UTC,2445915.937500,29.6633,-93.4786,0079,-13.39,-4.09,14.0000,253.0000
1984-08-03 11:00:00 UTC,2445915.958333,29.6633,-93.4786,0079,-15.87,-6.09,17.0000,249.0000
1984-08-03 11:30:00 UTC,2445915.979167,29.6633,-93.4786,0079,-19.47,-7.87,21.0000,248.0000
1984-08-03 12:00:00 UTC,2445916.000000,29.6633,-93.4786,0079,-22.41,-8.60,24.0000,249.0000
1984-08-03 12:30:00 UTC,2445916.020833,29.6633,-93.4786,0079,-24.27,-9.32,26.0000,249.0000
1984-08-03 13:00:00 UTC,2445916.041667,29.6633,-93.4786,0079,-24.67,-10.98,27.0000,246.0000
1984-08-03 13:30:00 UTC,2445916.062500,29.6633,-93.4786,0079,-24.95,-12.71,28.0000,243.0000
1984-08-03 14:00:00 UTC,2445916.083333,29.6633,-93.4786,0079,-25.61,-13.61,29.0000,242.0000
1984-08-03 14:30:00 UTC,2445916.104167,29.6633,-93.4786,0079,-25.38,-11.83,28.0000,245.0000
1984-08-03 15:00:00 UTC,2445916.125000,29.6633,-93.4786,0079,-25.03,-10.11,27.0000,248.0000
1984-08-03 15:30:00 UTC,2445916.145833,29.6633,-93.4786,0079,-24.11,-9.74,26.0000,248.0000
1984-08-03 16:00:00 UTC,2445916.166667,29.6633,-93.4786,0079,-23.75,-10.58,26.0000,246.0000
1984-08-03 16:30:00 UTC,2445916.187500,29.6633,-93.4786,0079,-23.01,-9.77,25.0000,247.0000
1984-08-03 17:00:00 UTC,2445916.208333,29.6633,-93.4786,0079,-21.75,-7.49,23.0000,251.0000
1984-08-03 17:30:00 UTC,2445916.229167,29.6633,-93.4786,0079,-19.56,-4.16,20.0000,258.0000
1984-08-03 18:00:00 UTC,2445916.250000,29.6633,-93.4786,0079,-16.87,-2.07,17.0000,263.0000
1984-08-03 18:30:00 UTC,2445916.270833,29.6633,-93.4786,0079,-14.89,-1.83,15.0000,263.0000
1984-08-03 19:00:00 UTC,2445916.291667,29.6633,-93.4786,0079,-14.98,-0.79,15.0000,267.0000
1984-08-03 19:30:00 UTC,2445916.312500,29.6633,-93.4786,0079,-14.89,1.83,15.0000,277.0000
1984-08-03 20:00:00 UTC,2445916.333333,29.6633,-93.4786,0079,-16.00,0.28,16.0000,271.0000
1984-08-03 20:30:00 UTC,2445916.354167,29.6633,-93.4786,0079,-16.74,-2.95,17.0000,260.0000
1984-08-03 21:00:00 UTC,2445916.375000,29.6633,-93.4786,0079,-16.42,-4.40,17.0000,255.0000
1984-08-03 21:30:00 UTC,2445916.395833,29.6633,-93.4786,0079,-17.85,-6.50,19.0000,250.0000
1984-08-03 22:00:00 UTC,2445916.416667,29.6633,-93.4786,0079,-21.47,-8.24,23.0000,249.0000
1984-08-03 22:30:00 UTC,2445916.437500,29.6633,-93.4786,0079,-23.49,-8.55,25.0000,250.0000
1984-08-03 23:00:00 UTC,2445916.458333,29.6633,-93.4786,0079,-26.14,-10.03,28.0000,249.0000
1984-08-03 23:30:00 UTC,2445916.479167,29.6633,-93.4786,0079,-30.07,-10.94,32.0000,250.0000
1984-08-04 00:00:00 UTC,2445916.500000,29.6633,-93.4786,0079,-31.72,-9.10,33.0000,254.0000
1984-08-04 00:30:00 UTC,2445916.520833,29.6633,-93.4786,0079,-30.53,-5.38,31.0000,260.0000
1984-08-04 01:00:00 UTC,2445916.541667,29.6633,-93.4786,0079,-27.89,-2.44,28.0000,265.0000
1984-08-04 01:30:00 UTC,2445916.562500,29.6633,-93.4786,0079,-26.80,-3.29,27.0000,263.0000
1984-08-04 02:00:00 UTC,2445916.583333,29.6633,-93.4786,0079,-27.57,-4.86,28.0000,260.0000
1984-08-04 02:30:00 UTC,2445916.604167,29.6633,-93.4786,0079,-26.90,-2.35,27.0000,265.0000
1984-08-04 03:00:00 UTC,2445916.625000,29.6633,-93.4786,0079,-22.87,2.40,23.0000,276.0000
1984-08-04 03:30:00 UTC,2445916.645833,29.6633,-93.4786,0079,-19.02,6.18,20.0000,288.0000
1984-08-04 04:00:00 UTC,2445916.666667,29.6633,-93.4786,0079,-14.57,8.76,17.0000,301.0000
1984-08-04 04:30:00 UTC,2445916.687500,29.6633,-93.4786,0079,-9.73,10.07,14.0000,316.0000
1984-08-04 05:00:00 UTC,2445916.708333,29.6633,-93.4786,0079,-6.54,10.06,12.0000,327.0000
1984-08-04 05:30:00 UTC,2445916.729167,29.6633,-93.4786,0079,-5.15,8.57,10.0000,329.0000
1984-08-04 06:00:00 UTC,2445916.750000,29.6633,-93.4786,0079,-4.50,7.79,9.0000,330.0000
1984-08-04 06:30:00 UTC,2445916.770833,29.6633,-93.4786,0079,-2.42,4.37,5.0000,331.0000
1984-08-04 07:00:00 UTC,2445916.791667,29.6633,-93.4786,0079,0.21,1.99,2.0000,6.0000
1984-08-04 07:30:00 UTC,2445916.812500,29.6633,-93.4786,0079,2.80,-1.08,3.0000,111.0000
1984-08-04 08:00:00 UTC,2445916.833333,29.6633,-93.4786,0079,0.83,-3.91,4.0000,168.0000
1984-08-04 08:30:00 UTC,2445916.854167,29.6633,-93.4786,0079,-4.93,-6.30,8.0000,218.0000
1984-08-04 09:00:00 UTC,2445916.875000,29.6633,-93.4786,0079,-9.01,-6.31,11.0000,235.0000
1984-08-04 09:30:00 UTC,2445916.895833,29.6633,-93.4786,0079,-10.52,-7.64,13.0000,234.0000
1984-08-04 10:00:00 UTC,2445916.916667,29.6633,-93.4786,0079,-12.29,-8.60,15.0000,235.0000
1984-08-04 10:30:00 UTC,2445916.937500,29.6633,-93.4786,0079,-13.71,-8.24,16.0000,239.0000
1984-08-04 11:00:00 UTC,2445916.958333,29.6633,-93.4786,0079,-14.26,-7.26,16.0000,243.0000
1984-08-04 11:30:00 UTC,2445916.979167,29.6633,-93.4786,0079,-13.31,-4.33,14.0000,252.0000
1984-08-04 12:00:00 UTC,2445917.000000,29.6633,-93.4786,0079,-10.63,-2.85,11.0000,255.0000
1984-08-04 12:30:00 UTC,2445917.020833,29.6633,-93.4786,0079,-9.71,-5.16,11.0000,242.0000
1984-08-04 13:00:00 UTC,2445917.041667,29.6633,-93.4786,0079,-10.52,-7.64,13.0000,234.0000
1984-08-04 13:30:00 UTC,2445917.062500,29.6633,-93.4786,0079,-9.73,-10.07,14.0000,224.0000
1984-08-04 14:00:00 UTC,2445917.083333,29.6633,-93.4786,0079,-6.79,-12.24,14.0000,209.0000
1984-08-04 14:30:00 UTC,2445917.104167,29.6633,-93.4786,0079,-4.33,-13.31,14.0000,198.0000
1984-08-04 15:00:00 UTC,2445917.125000,29.6633,-93.4786,0079,-3.62,-13.52,14.0000,195.0000
1984-08-04 15:30:00 UTC,2445917.145833,29.6633,-93.4786,0079,-3.62,-13.52,14.0000,195.0000
1984-08-04 16:00:00 UTC,2445917.166667,29.6633,-93.4786,0079,-3.62,-13.52,14.0000,195.0000
1984-08-04 16:30:00 UTC,2445917.187500,29.6633,-93.4786,0079,-5.13,-14.10,15.0000,200.0000
1984-08-04 17:00:00 UTC,2445917.208333,29.6633,-93.4786,0079,-9.84,-11.32,15.0000,221.0000
1984-08-04 17:30:00 UTC,2445917.229167,29.6633,-93.4786,0079,-14.85,-2.09,15.0000,262.0000
1984-08-04 18:00:00 UTC,2445917.250000,29.6633,-93.4786,0079,-15.01,7.98,17.0000,298.0000
1984-08-04 18:30:00 UTC,2445917.270833,29.6633,-93.4786,0079,-11.43,15.17,19.0000,323.0000
1984-08-04 19:00:00 UTC,2445917.291667,29.6633,-93.4786,0079,-10.18,18.37,21.0000,331.0000
1984-08-04 19:30:00 UTC,2445917.312500,29.6633,-93.4786,0079,-10.62,15.75,19.0000,326.0000
1984-08-04 20:00:00 UTC,2445917.333333,29.6633,-93.4786,0079,-8.78,8.18,12.0000,313.0000
1984-08-04 20:30:00 UTC,2445917.354167,29.6633,-93.4786,0079,-7.90,1.25,8.0000,279.0000
1984-08-04 21:00:00 UTC,2445917.375000,29.6633,-93.4786,0079,-8.80,-1.87,9.0000,258.0000
1984-08-04 21:30:00 UTC,2445917.395833,29.6633,-93.4786,0079,-10.27,-3.94,11.0000,249.0000
1984-08-04 22:00:00 UTC,2445917.416667,29.6633,-93.4786,0079,-10.79,-5.26,12.0000,244.0000
1984-08-04 22:30:00 UTC,2445917.437500,29.6633,-93.4786,0079,-11.97,-5.08,13.0000,247.0000
1984-08-04 23:00:00 UTC,2445917.458333,29.6633,-93.4786,0079,-12.05,-4.87,13.0000,248.0000
1984-08-04 23:30:00 UTC,2445917.479167,29.6633,-93.4786,0079,-11.68,-5.70,13.0000,244.0000
1984-08-05 00:00:00 UTC,2445917.500000,29.6633,-93.4786,0079,-12.47,-6.36,14.0000,243.0000
1984-08-05 00:30:00 UTC,2445917.520833,29.6633,-93.4786,0079,-14.38,-7.01,16.0000,244.0000
1984-08-05 01:00:00 UTC,2445917.541667,29.6633,-93.4786,0079,-16.44,-7.32,18.0000,246.0000
1984-08-05 01:30:00 UTC,2445917.562500,29.6633,-93.4786,0079,-16.57,-7.03,18.0000,247.0000
1984-08-05 02:00:00 UTC,2445917.583333,29.6633,-93.4786,0079,-16.69,-6.74,18.0000,248.0000
1984-08-05 02:30:00 UTC,2445917.604167,29.6633,-93.4786,0079,-17.74,-6.81,19.0000,249.0000
1984-08-05 03:00:00 UTC,2445917.625000,29.6633,-93.4786,0079,-18.91,-6.51,20.0000,251.0000
1984-08-05 03:30:00 UTC,2445917.645833,29.6633,-93.4786,0079,-21.87,-7.11,23.0000,252.0000
1984-08-05 04:00:00 UTC,2445917.666667,29.6633,-93.4786,0079,-24.58,-8.46,26.0000,251.0000
1984-08-05 04:30:00 UTC,2445917.687500,29.6633,-93.4786,0079,-25.21,-9.68,27.0000,249.0000
1984-08-05 05:00:00 UTC,2445917.708333,29.6633,-93.4786,0079,-20.31,-10.80,23.0000,242.0000
1984-08-05 05:30:00 UTC,2445917.729167,29.6633,-93.4786,0079,-13.99,-11.33,18.0000,231.0000
1984-08-05 06:00:00 UTC,2445917.750000,29.6633,-93.4786,0079,-11.59,-12.43,17.0000,223.0000
1984-08-05 06:30:00 UTC,2445917.770833,29.6633,-93.4786,0079,-12.86,-15.32,20.0000,220.0000
1984-08-05 07:00:00 UTC,2445917.791667,29.6633,-93.4786,0079,-15.10,-18.65,24.0000,219.0000
1984-08-05 07:30:00 UTC,2445917.812500,29.6633,-93.4786,0079,-16.99,-20.98,27.0000,219.0000
1984-08-05 08:00:00 UTC,2445917.833333,29.6633,-93.4786,0079,-16.99,-20.98,27.0000,219.0000
1984-08-05 08:30:00 UTC,2445917.854167,29.6633,-93.4786,0079,-15.73,-19.43,25.0000,219.0000
1984-08-05 09:00:00 UTC,2445917.875000,29.6633,-93.4786,0079,-14.16,-18.12,23.0000,218.0000
1984-08-05 09:30:00 UTC,2445917.895833,29.6633,-93.4786,0079,-14.47,-17.87,23.0000,219.0000
1984-08-05 10:00:00 UTC,2445917.916667,29.6633,-93.4786,0079,-14.43,-16.60,22.0000,221.0000
1984-08-05 10:30:00 UTC,2445917.937500,29.6633,-93.4786,0079,-14.59,-15.11,21.0000,224.0000
1984-08-05 11:00:00 UTC,2445917.958333,29.6633,-93.4786,0079,-14.63,-13.64,20.0000,227.0000
1984-08-05 11:30:00 UTC,2445917.979167,29.6633,-93.4786,0079,-16.09,-13.50,21.0000,230.0000
1984-08-05 12:00:00 UTC,2445918.000000,29.6633,-93.4786,0079,-16.38,-11.47,20.0000,235.0000
1984-08-05 12:30:00 UTC,2445918.020833,29.6633,-93.4786,0079,-17.66,-9.39,20.0000,242.0000
1984-08-05 13:00:00 UTC,2445918.041667,29.6633,-93.4786,0079,-18.54,-7.49,20.0000,248.0000
1984-08-05 13:30:00 UTC,2445918.062500,29.6633,-93.4786,0079,-20.54,-7.88,22.0000,249.0000
1984-08-05 14:00:00 UTC,2445918.083333,29.6633,-93.4786,0079,-23.56,-10.99,26.0000,245.0000
1984-08-05 14:30:00 UTC,2445918.104167,29.6633,-93.4786,0079,-26.49,-14.08,30.0000,242.0000
1984-08-05 15:00:00 UTC,2445918.125000,29.6633,-93.4786,0079,-27.41,-12.20,30.0000,246.0000
1984-08-05 15:30:00 UTC,2445918.145833,29.6633,-93.4786,0079,-22.50,-4.78,23.0000,258.0000
1984-08-05 16:00:00 UTC,2445918.166667,29.6633,-93.4786,0079,-13.99,0.49,14.0000,272.0000
1984-08-05 16:30:00 UTC,2445918.187500,29.6633,-93.4786,0079,-8.80,-1.87,9.0000,258.0000
1984-08-05 17:00:00 UTC,2445918.208333,29.6633,-93.4786,0079,-10.50,-5.82,12.0000,241.0000
1984-08-05 17:30:00 UTC,2445918.229167,29.6633,-93.4786,0079,-14.26,-7.26,16.0000,243.0000
1984-08-05 18:00:00 UTC,2445918.250000,29.6633,-93.4786,0079,-15.04,-5.47,16.0000,250.0000
1984-08-05 18:30:00 UTC,2445918.270833,29.6633,-93.4786,0079,-14.49,-3.88,15.0000,255.0000
1984-08-05 19:00:00 UTC,2445918.291667,29.6633,-93.4786,0079,-10.92,-1.34,11.0000,263.0000
1984-08-05 19:30:00 UTC,2445918.312500,29.6633,-93.4786,0079,-8.22,3.66,9.0000,294.0000
1984-08-05 20:00:00 UTC,2445918.333333,29.6633,-93.4786,0079,-5.25,6.04,8.0000,319.0000
1984-08-05 20:30:00 UTC,2445918.354167,29.6633,-93.4786,0079,-4.77,5.12,7.0000,317.0000
1984-08-05 21:00:00 UTC,2445918.375000,29.6633,-93.4786,0079,-7.28,5.29,9.0000,306.0000
1984-08-05 21:30:00 UTC,2445918.395833,29.6633,-93.4786,0079,-9.34,3.58,10.0000,291.0000
1984-08-05 22:00:00 UTC,2445918.416667,29.6633,-93.4786,0079,-7.87,-4.36,9.0000,241.0000
1984-08-05 22:30:00 UTC,2445918.437500,29.6633,-93.4786,0079,-5.63,-10.60,12.0000,208.0000
1984-08-05 23:00:00 UTC,2445918.458333,29.6633,-93.4786,0079,-3.61,-4.79,6.0000,217.0000
1984-08-05 23:30:00 UTC,2445918.479167,29.6633,-93.4786,0079,-2.94,4.05,5.0000,324.0000
1984-08-06 00:00:00 UTC,2445918.500000,29.6633,-93.4786,0079,-4.81,6.39,8.0000,323.0000
1984-08-06 00:30:00 UTC,2445918.520833,29.6633,-93.4786,0079,-8.04,7.50,11.0000,313.0000
1984-08-06 01:00:00 UTC,2445918.541667,29.6633,-93.4786,0079,-8.46,3.08,9.0000,290.0000
1984-08-06 01:30:00 UTC,2445918.562500,29.6633,-93.4786,0079,-9.99,0.35,10.0000,272.0000
1984-08-06 02:00:00 UTC,2445918.583333,29.6633,-93.4786,0079,-11.78,5.49,13.0000,295.0000
1984-08-06 02:30:00 UTC,2445918.604167,29.6633,-93.4786,0079,-11.15,10.04,15.0000,312.0000
1984-08-06 03:00:00 UTC,2445918.625000,29.6633,-93.4786,0079,-10.47,13.40,17.0000,322.0000
1984-08-06 03:30:00 UTC,2445918.645833,29.6633,-93.4786,0079,-10.50,18.19,21.0000,330.0000
1984-08-06 04:00:00 UTC,2445918.666667,29.6633,-93.4786,0079,-12.00,20.78,24.0000,330.0000
1984-08-06 04:30:00 UTC,2445918.687500,29.6633,-93.4786,0079,-13.25,21.20,25.0000,328.0000
1984-08-06 05:00:00 UTC,2445918.708333,29.6633,-93.4786,0079,-12.86,19.07,23.0000,326.0000
1984-08-06 05:30:00 UTC,2445918.729167,29.6633,-93.4786,0079,-11.70,14.97,19.0000,322.0000
1984-08-06 06:00:00 UTC,2445918.750000,29.6633,-93.4786,0079,-8.87,9.51,13.0000,317.0000
1984-08-06 06:30:00 UTC,2445918.770833,29.6633,-93.4786,0079,-6.79,5.90,9.0000,311.0000
1984-08-06 07:00:00 UTC,2445918.791667,29.6633,-93.4786,0079,-6.44,2.74,7.0000,293.0000
1984-08-06 07:30:00 UTC,2445918.812500,29.6633,-93.4786,0079,-7.85,1.53,8.0000,281.0000
1984-08-06 08:00:00 UTC,2445918.833333,29.6633,-93.4786,0079,-8.73,2.18,9.0000,284.0000
1984-08-06 08:30:00 UTC,2445918.854167,29.6633,-93.4786,0079,-10.52,3.22,11.0000,287.0000
1984-08-06 09:00:00 UTC,2445918.875000,29.6633,-93.4786,0079,-12.67,2.92,13.0000,283.0000
1984-08-06 09:30:00 UTC,2445918.895833,29.6633,-93.4786,0079,-16.83,2.37,17.0000,278.0000
1984-08-06 10:00:00 UTC,2445918.916667,29.6633,-93.4786,0079,-17.82,2.51,18.0000,278.0000
1984-08-06 10:30:00 UTC,2445918.937500,29.6633,-93.4786,0079,-16.63,3.53,17.0000,282.0000
1984-08-06 11:00:00 UTC,2445918.958333,29.6633,-93.4786,0079,-12.76,2.48,13.0000,281.0000
1984-08-06 11:30:00 UTC,2445918.979167,29.6633,-93.4786,0079,-10.83,1.91,11.0000,280.0000
1984-08-06 12:00:00 UTC,2445919.000000,29.6633,-93.4786,0079,-8.40,3.23,9.0000,291.0000
1984-08-06 12:30:00 UTC,2445919.020833,29.6633,-93.4786,0079,-6.55,4.59,8.0000,305.0000
1984-08-06 13:00:00 UTC,2445919.041667,29.6633,-93.4786,0079,-5.36,4.50,7.0000,310.0000
1984-08-06 13:30:00 UTC,2445919.062500,29.6633,-93.4786,0079,-5.00,-0.17,5.0000,268.0000
1984-08-06 14:00:00 UTC,2445919.083333,29.6633,-93.4786,0079,-7.71,-4.64,9.0000,239.0000
1984-08-06 14:30:00 UTC,2445919.104167,29.6633,-93.4786,0079,-12.90,-1.58,13.0000,263.0000
1984-08-06 15:00:00 UTC,2445919.125000,29.6633,-93.4786,0079,-14.92,1.57,15.0000,276.0000
1984-08-06 15:30:00 UTC,2445919.145833,29.6633,-93.4786,0079,-11.99,-0.42,12.0000,268.0000
1984-08-06 16:00:00 UTC,2445919.166667,29.6633,-93.4786,0079,-8.91,-1.25,9.0000,262.0000
1984-08-06 16:30:00 UTC,2445919.187500,29.6633,-93.4786,0079,-7.99,0.42,8.0000,273.0000
1984-08-06 17:00:00 UTC,2445919.208333,29.6633,-93.4786,0079,-7.56,2.60,8.0000,289.0000
1984-08-06 17:30:00 UTC,2445919.229167,29.6633,-93.4786,0079,-5.94,3.71,7.0000,302.0000
1984-08-06 18:00:00 UTC,2445919.250000,29.6633,-93.4786,0079,-5.99,0.42,6.0000,274.0000
1984-08-06 18:30:00 UTC,2445919.270833,29.6633,-93.4786,0079,-7.19,-3.51,8.0000,244.0000
1984-08-06 19:00:00 UTC,2445919.291667,29.6633,-93.4786,0079,-9.27,-3.75,10.0000,248.0000
1984-08-06 19:30:00 UTC,2445919.312500,29.6633,-93.4786,0079,-9.89,-4.82,11.0000,244.0000
1984-08-06 20:00:00 UTC,2445919.333333,29.6633,-93.4786,0079,-9.46,-7.39,12.0000,232.0000
1984-08-06 20:30:00 UTC,2445919.354167,29.6633,-93.4786,0079,-9.83,-6.88,12.0000,235.0000
1984-08-06 21:00:00 UTC,2445919.375000,29.6633,-93.4786,0079,-11.05,-4.69,12.0000,247.0000
1984-08-06 21:30:00 UTC,2445919.395833,29.6633,-93.4786,0079,-10.40,-3.58,11.0000,251.0000
1984-08-06 22:00:00 UTC,2445919.416667,29.6633,-93.4786,0079,-8.22,-3.66,9.0000,246.0000
1984-08-06 22:30:00 UTC,2445919.437500,29.6633,-93.4786,0079,-4.53,-2.11,5.0000,245.0000
1984-08-06 23:00:00 UTC,2445919.458333,29.6633,-93.4786,0079,-2.82,-1.03,3.0000,250.0000
1984-08-06 23:30:00 UTC,2445919.479167,29.6633,-93.4786,0079,-2.43,-1.76,3.0000,234.0000
1984-08-07 00:00:00 UTC,2445919.500000,29.6633,-93.4786,0079,-2.57,-3.06,4.0000,220.0000
1984-08-07 00:30:00 UTC,2445919.520833,29.6633,-93.4786,0079,-1.94,-3.50,4.0000,209.0000
1984-08-07 01:00:00 UTC,2445919.541667,29.6633,-93.4786,0079,0.31,-2.98,3.0000,174.0000
1984-08-07 01:30:00 UTC,2445919.562500,29.6633,-93.4786,0079,1.32,-2.70,3.0000,154.0000
1984-08-07 02:00:00 UTC,2445919.583333,29.6633,-93.4786,0079,0.98,-2.84,3.0000,161.0000
1984-08-07 02:30:00 UTC,2445919.604167,29.6633,-93.4786,0079,1.63,-4.73,5.0000,161.0000
1984-08-07 03:00:00 UTC,2445919.625000,29.6633,-93.4786,0079,1.38,-4.81,5.0000,164.0000
1984-08-07 03:30:00 UTC,2445919.645833,29.6633,-93.4786,0079,-1.12,-4.87,5.0000,193.0000
1984-08-07 04:00:00 UTC,2445919.666667,29.6633,-93.4786,0079,-4.77,-7.63,9.0000,212.0000
1984-08-07 04:30:00 UTC,2445919.687500,29.6633,-93.4786,0079,-5.82,-10.50,12.0000,209.0000
1984-08-07 05:00:00 UTC,2445919.708333,29.6633,-93.4786,0079,-5.92,-12.69,14.0000,205.0000
1984-08-07 05:30:00 UTC,2445919.729167,29.6633,-93.4786,0079,-5.69,-12.79,14.0000,204.0000
1984-08-07 06:00:00 UTC,2445919.750000,29.6633,-93.4786,0079,-6.54,-10.06,12.0000,213.0000
1984-08-07 06:30:00 UTC,2445919.770833,29.6633,-93.4786,0079,-7.77,-6.29,10.0000,231.0000
1984-08-07 07:00:00 UTC,2445919.791667,29.6633,-93.4786,0079,-9.33,-5.83,11.0000,238.0000
1984-08-07 07:30:00 UTC,2445919.812500,29.6633,-93.4786,0079,-11.03,-8.62,14.0000,232.0000
1984-08-07 08:00:00 UTC,2445919.833333,29.6633,-93.4786,0079,-13.38,-12.04,18.0000,228.0000
1984-08-07 08:30:00 UTC,2445919.854167,29.6633,-93.4786,0079,-14.97,-11.70,19.0000,232.0000
1984-08-07 09:00:00 UTC,2445919.875000,29.6633,-93.4786,0079,-15.01,-7.98,17.0000,242.0000
1984-08-07 09:30:00 UTC,2445919.895833,29.6633,-93.4786,0079,-14.62,-3.37,15.0000,257.0000
1984-08-07 10:00:00 UTC,2445919.916667,29.6633,-93.4786,0079,-12.76,2.48,13.0000,281.0000
1984-08-07 10:30:00 UTC,2445919.937500,29.6633,-93.4786,0079,-9.83,6.88,12.0000,305.0000
1984-08-07 11:00:00 UTC,2445919.958333,29.6633,-93.4786,0079,-7.39,9.46,12.0000,322.0000
1984-08-07 11:30:00 UTC,2445919.979167,29.6633,-93.4786,0079,-6.79,12.24,14.0000,331.0000
1984-08-07 12:00:00 UTC,2445920.000000,29.6633,-93.4786,0079,-5.47,12.89,14.0000,337.0000
1984-08-07 12:30:00 UTC,2445920.020833,29.6633,-93.4786,0079,-2.90,11.64,12.0000,346.0000
1984-08-07 13:00:00 UTC,2445920.041667,29.6633,-93.4786,0079,-0.63,11.98,12.0000,357.0000
1984-08-07 13:30:00 UTC,2445920.062500,29.6633,-93.4786,0079,1.66,18.93,19.0000,5.0000
1984-08-07 14:00:00 UTC,2445920.083333,29.6633,-93.4786,0079,3.91,24.69,25.0000,9.0000
1984-08-07 14:30:00 UTC,2445920.104167,29.6633,-93.4786,0079,6.30,27.28,28.0000,13.0000
1984-08-07 15:00:00 UTC,2445920.125000,29.6633,-93.4786,0079,6.53,26.20,27.0000,14.0000
1984-08-07 15:30:00 UTC,2445920.145833,29.6633,-93.4786,0079,6.73,25.11,26.0000,15.0000
1984-08-07 16:00:00 UTC,2445920.166667,29.6633,-93.4786,0079,5.95,22.22,23.0000,15.0000
1984-08-07 16:30:00 UTC,2445920.187500,29.6633,-93.4786,0079,4.92,18.35,19.0000,15.0000
1984-08-07 17:00:00 UTC,2445920.208333,29.6633,-93.4786,0079,3.88,14.49,15.0000,15.0000
1984-08-07 17:30:00 UTC,2445920.229167,29.6633,-93.4786,0079,3.11,11.59,12.0000,15.0000
1984-08-07 18:00:00 UTC,2445920.250000,29.6633,-93.4786,0079,2.85,10.63,11.0000,15.0000
1984-08-07 18:30:00 UTC,2445920.270833,29.6633,-93.4786,0079,3.03,10.57,11.0000,16.0000
1984-08-07 19:00:00 UTC,2445920.291667,29.6633,-93.4786,0079,3.03,10.57,11.0000,16.0000
1984-08-07 19:30:00 UTC,2445920.312500,29.6633,-93.4786,0079,3.22,10.52,11.0000,17.0000
1984-08-07 20:00:00 UTC,2445920.333333,29.6633,-93.4786,0079,3.71,11.41,12.0000,18.0000
1984-08-07 20:30:00 UTC,2445920.354167,29.6633,-93.4786,0079,4.23,12.29,13.0000,19.0000
1984-08-07 21:00:00 UTC,2445920.375000,29.6633,-93.4786,0079,4.79,13.16,14.0000,20.0000
1984-08-07 21:30:00 UTC,2445920.395833,29.6633,-93.4786,0079,5.67,9.43,11.0000,31.0000
1984-08-07 22:00:00 UTC,2445920.416667,29.6633,-93.4786,0079,7.79,1.80,8.0000,77.0000
1984-08-07 22:30:00 UTC,2445920.437500,29.6633,-93.4786,0079,9.34,-3.58,10.0000,111.0000
1984-08-07 23:00:00 UTC,2445920.458333,29.6633,-93.4786,0079,10.69,-5.45,12.0000,117.0000
1984-08-07 23:30:00 UTC,2445920.479167,29.6633,-93.4786,0079,10.29,-6.18,12.0000,121.0000
1984-08-08 00:00:00 UTC,2445920.500000,29.6633,-93.4786,0079,8.78,-6.62,11.0000,127.0000
1984-08-08 00:30:00 UTC,2445920.520833,29.6633,-93.4786,0079,5.66,-5.66,8.0000,135.0000
1984-08-08 01:00:00 UTC,2445920.541667,29.6633,-93.4786,0079,2.58,-4.29,5.0000,149.0000
1984-08-08 01:30:00 UTC,2445920.562500,29.6633,-93.4786,0079,0.76,-3.93,4.0000,169.0000
1984-08-08 02:00:00 UTC,2445920.583333,29.6633,-93.4786,0079,-0.07,-4.00,4.0000,181.0000
1984-08-08 02:30:00 UTC,2445920.604167,29.6633,-93.4786,0079,-0.93,-2.85,3.0000,198.0000
1984-08-08 03:00:00 UTC,2445920.625000,29.6633,-93.4786,0079,-2.30,-1.93,3.0000,230.0000
1984-08-08 03:30:00 UTC,2445920.645833,29.6633,-93.4786,0079,-4.57,-2.03,5.0000,246.0000
1984-08-08 04:00:00 UTC,2445920.666667,29.6633,-93.4786,0079,-6.91,-1.10,7.0000,261.0000
1984-08-08 04:30:00 UTC,2445920.687500,29.6633,-93.4786,0079,-8.93,1.10,9.0000,277.0000
1984-08-08 05:00:00 UTC,2445920.708333,29.6633,-93.4786,0079,-9.85,1.74,10.0000,280.0000
1984-08-08 05:30:00 UTC,2445920.729167,29.6633,-93.4786,0079,-10.97,0.77,11.0000,274.0000
1984-08-08 06:00:00 UTC,2445920.750000,29.6633,-93.4786,0079,-11.97,-0.84,12.0000,266.0000
1984-08-08 06:30:00 UTC,2445920.770833,29.6633,-93.4786,0079,-10.83,-1.91,11.0000,260.0000
1984-08-08 07:00:00 UTC,2445920.791667,29.6633,-93.4786,0079,-9.78,-2.08,10.0000,258.0000
1984-08-08 07:30:00 UTC,2445920.812500,29.6633,-93.4786,0079,-9.51,-3.09,10.0000,252.0000